�N����,����,�g�[���i���ԁj���x,�g�[�����x,��g�[���i���ցj���x,����
 2004/10/01, 0:00,22.5,64,20.7,24.2
 2004/10/01, 0:15,22.4,64,20.5,24.5
 2004/10/01, 0:30,22.3,64,20.4,24.4
 2004/10/01, 0:45,22.2,64,20.4,24.2
 2004/10/01, 1:00,22.1,65,20.3,24.1
 2004/10/01, 1:15,22,65,20.2,24
 2004/10/01, 1:30,21.9,65,20.2,23.9
 2004/10/01, 1:45,21.9,65,20.1,23.8
 2004/10/01, 2:00,21.8,65,20,23.7
 2004/10/01, 2:15,21.8,65,19.8,23.6
 2004/10/01, 2:30,21.7,66,19.7,23.5
 2004/10/01, 2:45,21.6,66,19.6,23.4
 2004/10/01, 3:00,21.5,66,19.5,23.3
 2004/10/01, 3:15,21.5,66,19.4,23.2
 2004/10/01, 3:30,21.3,66,19.3,23.1
 2004/10/01, 3:45,21.3,66,19.1,23
 2004/10/01, 4:00,21.2,66,19.1,22.9
 2004/10/01, 4:15,21.1,66,18.9,22.8
 2004/10/01, 4:30,21.1,66,19,22.6
 2004/10/01, 4:45,21,66,18.9,22.5
 2004/10/01, 5:00,21,66,18.8,22.4
 2004/10/01, 5:15,20.9,66,18.8,22.3
 2004/10/01, 5:30,20.8,66,18.7,22.2
 2004/10/01, 5:45,20.7,66,18.6,22.1
 2004/10/01, 6:00,20.6,66,18.6,22
 2004/10/01, 6:15,20.6,66,18.5,21.9
 2004/10/01, 6:30,20.4,66,18.6,23.3
 2004/10/01, 6:45,20.4,67,18.8,24.4
 2004/10/01, 7:00,20.3,68,18.9,24.1
 2004/10/01, 7:15,20.6,66,18.7,24
 2004/10/01, 7:30,21,64,18.9,22.8
 2004/10/01, 7:45,21.8,63,19.4,24
 2004/10/01, 8:00,22.3,62,20.1,23.9
 2004/10/01, 8:15,22.7,61,21.3,23.7
 2004/10/01, 8:30,23.2,61,23.1,23.2
 2004/10/01, 8:45,23.7,59,23,23.1
 2004/10/01, 9:00,23.6,58,23.2,23.1
 2004/10/01, 9:15,23.8,58,23.5,23
 2004/10/01, 9:30,23.9,58,23.3,24
 2004/10/01, 9:45,23.8,59,23,23.8
 2004/10/01,10:00,23.8,59,22.8,23.8
 2004/10/01,10:15,23.8,59,22.7,23.7
 2004/10/01,10:30,23.9,59,22.6,23.6
 2004/10/01,10:45,23.9,59,22.6,23.6
 2004/10/01,11:00,24.1,58,22.7,23.5
 2004/10/01,11:15,24,59,22.7,23.5
 2004/10/01,11:30,24.2,59,22.8,23.4
 2004/10/01,11:45,24.3,59,22.9,23.4
 2004/10/01,12:00,24.4,59,23,23.7
 2004/10/01,12:15,24.6,58,23.1,23.7
 2004/10/01,12:30,24.8,58,23.2,23.6
 2004/10/01,12:45,25,57,23.3,23.6
 2004/10/01,13:00,25.1,57,23.5,23.6
 2004/10/01,13:15,25.3,57,23.6,23.6
 2004/10/01,13:30,25.5,57,23.8,23.5
 2004/10/01,13:45,25.5,56,24,23.5
 2004/10/01,14:00,25.8,55,24,23.5
 2004/10/01,14:15,26.2,54,24.2,23.5
 2004/10/01,14:30,26.1,54,24.2,23.5
 2004/10/01,14:45,26.2,54,24.3,23.5
 2004/10/01,15:00,26.5,53,24.5,23.9
 2004/10/01,15:15,26.8,53,24.6,24
 2004/10/01,15:30,26.8,52,24.7,23.9
 2004/10/01,15:45,26.9,52,25.2,23.9
 2004/10/01,16:00,27,53,24.9,23.9
 2004/10/01,16:15,27.2,53,25,23.9
 2004/10/01,16:30,27.5,54,25.4,23.9
 2004/10/01,16:45,27.2,54,25.2,24.1
 2004/10/01,17:00,26.8,58,25.1,24.1
 2004/10/01,17:15,26.4,61,24.9,23.8
 2004/10/01,17:30,26.3,61,24.7,24.2
 2004/10/01,17:45,26.1,61,24.6,24.2
 2004/10/01,18:00,25.6,61,24.5,24.2
 2004/10/01,18:15,25.7,61,24.4,24.2
 2004/10/01,18:30,25.7,61,24.3,24.3
 2004/10/01,18:45,25.4,62,24.2,24.2
 2004/10/01,19:00,25.2,63,24.2,24.3
 2004/10/01,19:15,25.4,62,23.6,24.4
 2004/10/01,19:30,25.4,62,23.6,24.4
 2004/10/01,19:45,25.3,62,23.5,24.4
 2004/10/01,20:00,25.7,61,23.5,24.3
 2004/10/01,20:15,25.7,61,23.4,24.3
 2004/10/01,20:30,25.7,62,23.3,24.3
 2004/10/01,20:45,25.6,62,23.1,24.3
 2004/10/01,21:00,25.6,62,22.9,24.3
 2004/10/01,21:15,25.6,62,22.6,24.3
 2004/10/01,21:30,25.6,62,22.7,24.2
 2004/10/01,21:45,25.6,61,22.6,24.2
 2004/10/01,22:00,25.5,62,22.5,24.1
 2004/10/01,22:15,25.5,62,22.5,24.2
 2004/10/01,22:30,25.3,63,22.5,24.4
 2004/10/01,22:45,25.3,64,22.3,24.4
 2004/10/01,23:00,25.3,64,22.4,24.3
 2004/10/01,23:15,25.3,64,22.3,24.3
 2004/10/01,23:30,24.9,65,22.7,24.3
 2004/10/01,23:45,25,65,22.8,24.3
 2004/10/02, 0:00,25,65,22.8,24.2
 2004/10/02, 0:15,24.9,65,22.8,24.3
 2004/10/02, 0:30,24.7,66,22.8,24.3
 2004/10/02, 0:45,24.5,67,22.8,24.2
 2004/10/02, 1:00,24.5,67,22.7,24.2
 2004/10/02, 1:15,24.3,68,22.7,24.1
 2004/10/02, 1:30,24.2,68,22.6,24.1
 2004/10/02, 1:45,24.1,68,22.6,24.1
 2004/10/02, 2:00,24,68,22.6,24
 2004/10/02, 2:15,24,68,22.5,23.9
 2004/10/02, 2:30,23.9,68,22.4,23.9
 2004/10/02, 2:45,23.8,68,22.4,23.8
 2004/10/02, 3:00,23.7,69,22.3,23.8
 2004/10/02, 3:15,23.6,69,22.3,23.7
 2004/10/02, 3:30,23.6,69,22.3,23.7
 2004/10/02, 3:45,23.5,70,22.3,23.6
 2004/10/02, 4:00,23.5,70,22.2,23.6
 2004/10/02, 4:15,23.4,70,22.2,23.5
 2004/10/02, 4:30,23.3,70,22.1,23.5
 2004/10/02, 4:45,23.3,70,22.1,23.5
 2004/10/02, 5:00,23.2,71,22.1,23.3
 2004/10/02, 5:15,23.2,71,22.1,23.3
 2004/10/02, 5:30,23.2,72,22.1,23.2
 2004/10/02, 5:45,23.2,72,22.1,23.2
 2004/10/02, 6:00,23.2,72,22.1,23.2
 2004/10/02, 6:15,23.1,72,22.1,23.2
 2004/10/02, 6:30,23.1,72,22.1,23.1
 2004/10/02, 6:45,23.1,72,22.1,23.9
 2004/10/02, 7:00,23.1,72,22.1,24.1
 2004/10/02, 7:15,23,73,22,24
 2004/10/02, 7:30,23.2,73,22.1,24.3
 2004/10/02, 7:45,23.1,73,22.1,24.3
 2004/10/02, 8:00,23.1,73,22.1,24.2
 2004/10/02, 8:15,23.1,73,22.1,24.6
 2004/10/02, 8:30,23.1,74,22.1,24.5
 2004/10/02, 8:45,23.1,74,22.3,24.4
 2004/10/02, 9:00,23.1,75,22.2,24.4
 2004/10/02, 9:15,23.1,75,22.3,23.9
 2004/10/02, 9:30,23.3,77,22.3,23.9
 2004/10/02, 9:45,23.5,82,22.3,23.9
 2004/10/02,10:00,23.4,78,22.3,23.9
 2004/10/02,10:15,23.4,77,22.3,23.9
 2004/10/02,10:30,23.4,77,22.4,23.9
 2004/10/02,10:45,23.4,76,22.4,23.9
 2004/10/02,11:00,23.4,77,22.4,23.5
 2004/10/02,11:15,23.5,77,22.4,23.7
 2004/10/02,11:30,23.6,76,22.6,23.7
 2004/10/02,11:45,23.6,76,22.6,23.7
 2004/10/02,12:00,23.6,75,22.7,23.6
 2004/10/02,12:15,23.6,75,22.7,23.6
 2004/10/02,12:30,23.6,74,22.8,23.6
 2004/10/02,12:45,23.6,74,22.8,23.6
 2004/10/02,13:00,23.5,74,22.9,22.7
 2004/10/02,13:15,23.7,73,23,23.5
 2004/10/02,13:30,23.7,74,23,23.9
 2004/10/02,13:45,23.6,74,23,23.9
 2004/10/02,14:00,23.7,73,23.2,23.9
 2004/10/02,14:15,23.9,72,23.3,23.9
 2004/10/02,14:30,23.8,72,23.4,23.9
 2004/10/02,14:45,23.8,71,23.4,23.8
 2004/10/02,15:00,23.7,71,23.3,23.8
 2004/10/02,15:15,23.7,71,23.4,23.8
 2004/10/02,15:30,23.7,70,23.2,23.8
 2004/10/02,15:45,23.7,71,23.3,23.8
 2004/10/02,16:00,23.7,71,23.2,23.7
 2004/10/02,16:15,23.8,73,23.2,23.7
 2004/10/02,16:30,23.9,72,23.1,23.7
 2004/10/02,16:45,23.8,72,23.1,23.8
 2004/10/02,17:00,23.8,72,23.1,23.8
 2004/10/02,17:15,23.8,73,23,23.8
 2004/10/02,17:30,23.7,73,22.9,23.8
 2004/10/02,17:45,23.7,74,22.8,23.8
 2004/10/02,18:00,23.9,77,22.8,24.1
 2004/10/02,18:15,23.7,75,22.6,24.1
 2004/10/02,18:30,23.8,76,22.5,24.4
 2004/10/02,18:45,23.9,81,22.5,24.4
 2004/10/02,19:00,23.9,78,22.4,24.3
 2004/10/02,19:15,23.9,76,22.4,24.3
 2004/10/02,19:30,23.7,76,22.4,24.1
 2004/10/02,19:45,24.4,75,22.4,24.1
 2004/10/02,20:00,24.4,74,22.3,24.1
 2004/10/02,20:15,24.4,75,22.3,24.1
 2004/10/02,20:30,24.4,75,22.3,23.9
 2004/10/02,20:45,24.4,75,22.2,24.6
 2004/10/02,21:00,24.2,75,22.4,24.3
 2004/10/02,21:15,24.2,75,22.3,24.3
 2004/10/02,21:30,24.2,75,22.1,24.3
 2004/10/02,21:45,24.2,75,22.1,24.2
 2004/10/02,22:00,24.1,75,22.1,24.2
 2004/10/02,22:15,24.1,74,22.1,24.2
 2004/10/02,22:30,24.1,74,22.1,24.2
 2004/10/02,22:45,24.1,74,21.8,24.2
 2004/10/02,23:00,24,73,21.8,23.9
 2004/10/02,23:15,24,74,21.8,24.2
 2004/10/02,23:30,24.2,74,21.8,24.3
 2004/10/02,23:45,24.2,73,21.7,24.3
 2004/10/03, 0:00,24.1,73,21.8,24.2
 2004/10/03, 0:15,24.1,72,21.7,24.1
 2004/10/03, 0:30,24,72,21.9,24.2
 2004/10/03, 0:45,23.9,73,22,24.2
 2004/10/03, 1:00,23.7,73,22,24.2
 2004/10/03, 1:15,23.6,73,22.1,24.1
 2004/10/03, 1:30,23.5,74,22.1,24.1
 2004/10/03, 1:45,23.4,73,21.9,24.1
 2004/10/03, 2:00,23.3,74,22,24
 2004/10/03, 2:15,23.2,74,21.9,24
 2004/10/03, 2:30,23.2,74,21.9,24
 2004/10/03, 2:45,23.2,74,22,23.9
 2004/10/03, 3:00,23.1,74,21.9,23.9
 2004/10/03, 3:15,23.1,74,21.9,23.9
 2004/10/03, 3:30,23,73,21.8,23.8
 2004/10/03, 3:45,23,73,21.8,23.8
 2004/10/03, 4:00,23,73,21.8,23.8
 2004/10/03, 4:15,22.9,73,21.8,23.7
 2004/10/03, 4:30,22.9,73,21.8,23.7
 2004/10/03, 4:45,22.8,73,21.7,23.7
 2004/10/03, 5:00,22.8,73,21.7,23.6
 2004/10/03, 5:15,22.7,73,21.7,23.6
 2004/10/03, 5:30,22.7,72,21.6,23.6
 2004/10/03, 5:45,22.7,73,21.6,24.2
 2004/10/03, 6:00,22.7,72,21.5,24
 2004/10/03, 6:15,22.7,72,21.4,24
 2004/10/03, 6:30,22.6,71,21.3,23.9
 2004/10/03, 6:45,22.6,70,21.3,23.9
 2004/10/03, 7:00,22.5,69,21.2,23.8
 2004/10/03, 7:15,22.5,69,21.2,23.7
 2004/10/03, 7:30,22.5,69,21.2,23.4
 2004/10/03, 7:45,22.5,68,21.2,23.3
 2004/10/03, 8:00,22.5,68,21.2,23.3
 2004/10/03, 8:15,22.4,68,21.1,23.3
 2004/10/03, 8:30,22.4,68,21.1,23.3
 2004/10/03, 8:45,22.4,67,21,23.2
 2004/10/03, 9:00,22.2,66,20.8,23.2
 2004/10/03, 9:15,22.4,65,21,23.9
 2004/10/03, 9:30,22.2,64,20.9,23.7
 2004/10/03, 9:45,22.3,65,21,23.7
 2004/10/03,10:00,22.9,66,21.1,23.6
 2004/10/03,10:15,22.9,65,21.1,23.5
 2004/10/03,10:30,23.1,66,21.2,23.8
 2004/10/03,10:45,23.2,66,21.2,23.7
 2004/10/03,11:00,23.4,64,21.3,23.7
 2004/10/03,11:15,23.3,63,21.2,24.1
 2004/10/03,11:30,23.1,63,21.1,24
 2004/10/03,11:45,23.1,63,20.9,23.9
 2004/10/03,12:00,23,63,20.8,23.9
 2004/10/03,12:15,23,65,20.9,23.8
 2004/10/03,12:30,23,68,21.1,23.7
 2004/10/03,12:45,23,66,21.2,23.6
 2004/10/03,13:00,22.6,64,21.2,23.7
 2004/10/03,13:15,22.8,65,21.4,23.6
 2004/10/03,13:30,23,64,21.2,23.7
 2004/10/03,13:45,23.4,64,21.3,23.6
 2004/10/03,14:00,23.2,63,21.4,24.1
 2004/10/03,14:15,23,63,21.5,24.2
 2004/10/03,14:30,23.3,63,21.8,24.1
 2004/10/03,14:45,23.3,61,21.9,24
 2004/10/03,15:00,23,63,21.9,23.9
 2004/10/03,15:15,23.3,63,22,23.9
 2004/10/03,15:30,23.3,62,21.9,24
 2004/10/03,15:45,23.3,63,21.9,24.2
 2004/10/03,16:00,23.4,63,21.9,24.1
 2004/10/03,16:15,23.3,63,21.8,24.1
 2004/10/03,16:30,23.2,63,21.6,23.7
 2004/10/03,16:45,23.1,63,21.5,23.7
 2004/10/03,17:00,23.1,63,21.4,23.6
 2004/10/03,17:15,22.9,63,21.3,23.6
 2004/10/03,17:30,23,63,21.3,23.9
 2004/10/03,17:45,22.8,63,21.3,24.2
 2004/10/03,18:00,22.8,64,21.2,24.1
 2004/10/03,18:15,22.7,63,21.2,24
 2004/10/03,18:30,22.7,63,21,24
 2004/10/03,18:45,22.7,63,21.1,23.4
 2004/10/03,19:00,22.6,62,21.1,23.4
 2004/10/03,19:15,22.4,61,20.9,23.4
 2004/10/03,19:30,22.4,62,20.8,23.7
 2004/10/03,19:45,22.4,63,20.8,24.1
 2004/10/03,20:00,22.6,64,20.7,24.1
 2004/10/03,20:15,22.5,64,20.7,24.1
 2004/10/03,20:30,22.7,64,20.9,24.2
 2004/10/03,20:45,22.8,64,20.9,24.1
 2004/10/03,21:00,23.5,67,21,24
 2004/10/03,21:15,23.2,65,20.9,24.1
 2004/10/03,21:30,23,63,20.9,23.6
 2004/10/03,21:45,22.9,64,21,23.9
 2004/10/03,22:00,22.9,63,21,23.9
 2004/10/03,22:15,22.8,64,21,23.8
 2004/10/03,22:30,22.6,65,20.9,23.7
 2004/10/03,22:45,22.7,73,20.9,23.7
 2004/10/03,23:00,22.8,74,20.9,23.7
 2004/10/03,23:15,22.8,72,21,24.2
 2004/10/03,23:30,22.6,69,20.9,23.4
 2004/10/03,23:45,22.4,70,20.8,23.8
 2004/10/04, 0:00,22.3,71,20.8,23.8
 2004/10/04, 0:15,22.3,71,20.7,23
 2004/10/04, 0:30,22.2,71,20.6,23.3
 2004/10/04, 0:45,22.1,71,20.6,23.3
 2004/10/04, 1:00,22.1,71,20.5,23.2
 2004/10/04, 1:15,22,71,20.5,23.2
 2004/10/04, 1:30,21.9,71,20.4,23.1
 2004/10/04, 1:45,21.9,70,20.4,23.1
 2004/10/04, 2:00,21.8,70,20.3,23
 2004/10/04, 2:15,21.8,70,20.3,23
 2004/10/04, 2:30,21.7,71,20.3,22.9
 2004/10/04, 2:45,21.7,71,20.3,22.9
 2004/10/04, 3:00,21.6,71,20.2,22.8
 2004/10/04, 3:15,21.6,70,20.2,22.8
 2004/10/04, 3:30,21.5,70,20,22.7
 2004/10/04, 3:45,21.5,70,20.1,22.7
 2004/10/04, 4:00,21.4,70,20.1,22.6
 2004/10/04, 4:15,21.3,70,20.1,22.6
 2004/10/04, 4:30,21.3,70,20,22.5
 2004/10/04, 4:45,21.2,70,20,22.5
 2004/10/04, 5:00,21.2,70,20,22.4
 2004/10/04, 5:15,21.2,70,19.9,22.4
 2004/10/04, 5:30,21.2,70,19.9,22.3
 2004/10/04, 5:45,21.2,71,19.9,22.3
 2004/10/04, 6:00,21.2,71,19.9,22.2
 2004/10/04, 6:15,21.1,72,19.9,22.2
 2004/10/04, 6:30,20.9,71,19.9,22.1
 2004/10/04, 6:45,20.9,71,19.9,23.2
 2004/10/04, 7:00,20.7,71,19.9,24
 2004/10/04, 7:15,20.8,70,20,23.9
 2004/10/04, 7:30,21.2,70,20.1,23.8
 2004/10/04, 7:45,21.7,68,20.5,22.7
 2004/10/04, 8:00,21.7,69,20.7,23.6
 2004/10/04, 8:15,22.3,66,21.9,23.5
 2004/10/04, 8:30,22.7,63,22.9,23.4
 2004/10/04, 8:45,23.2,61,23.4,23.4
 2004/10/04, 9:00,23.5,58,23.9,23.3
 2004/10/04, 9:15,23.5,58,23.6,23.3
 2004/10/04, 9:30,23.4,57,23.3,23.2
 2004/10/04, 9:45,23.4,57,23.1,23.2
 2004/10/04,10:00,23.3,57,22.8,23.1
 2004/10/04,10:15,23.3,56,22.7,23.1
 2004/10/04,10:30,23.4,57,22.7,23
 2004/10/04,10:45,23.5,56,22.6,23
 2004/10/04,11:00,23.4,55,22.6,23
 2004/10/04,11:15,23.7,54,22.6,22.9
 2004/10/04,11:30,23.6,55,22.6,22.9
 2004/10/04,11:45,23.7,53,22.7,22.3
 2004/10/04,12:00,23.9,53,22.7,23.2
 2004/10/04,12:15,24.2,52,22.8,23.1
 2004/10/04,12:30,24.3,52,22.8,23.1
 2004/10/04,12:45,24.4,52,22.8,23.1
 2004/10/04,13:00,24.4,53,23,23.1
 2004/10/04,13:15,24.4,53,23.1,23.1
 2004/10/04,13:30,24.5,53,23.2,23.1
 2004/10/04,13:45,24.4,54,23.2,23.1
 2004/10/04,14:00,24.4,54,23.2,23.1
 2004/10/04,14:15,24.7,52,23.2,23.1
 2004/10/04,14:30,24.7,52,23.4,23.1
 2004/10/04,14:45,25.1,50,23.3,23.1
 2004/10/04,15:00,25.2,50,23.5,23.1
 2004/10/04,15:15,25,52,23.4,23
 2004/10/04,15:30,24.8,53,23.3,23
 2004/10/04,15:45,24.6,52,23.2,23
 2004/10/04,16:00,24.5,53,23.2,23
 2004/10/04,16:15,24.1,54,23,23
 2004/10/04,16:30,23.9,55,23,23
 2004/10/04,16:45,23.9,55,22.9,23.2
 2004/10/04,17:00,23.8,55,22.7,23.3
 2004/10/04,17:15,23.5,56,22.5,23.3
 2004/10/04,17:30,23.3,56,22.3,23.3
 2004/10/04,17:45,23.2,56,22.1,23.2
 2004/10/04,18:00,23.2,57,21.9,22.9
 2004/10/04,18:15,23.1,57,21.8,23.1
 2004/10/04,18:30,23,58,21.6,23.1
 2004/10/04,18:45,22.9,58,21.6,23.1
 2004/10/04,19:00,22.8,58,21.5,23.1
 2004/10/04,19:15,22.7,59,21.5,23
 2004/10/04,19:30,22.4,62,21.5,23
 2004/10/04,19:45,22.9,67,21.4,23.5
 2004/10/04,20:00,22.4,63,21.5,23.4
 2004/10/04,20:15,22.5,63,21.4,23.4
 2004/10/04,20:30,22.6,63,21.3,23.4
 2004/10/04,20:45,22.5,63,21.2,23.4
 2004/10/04,21:00,22.5,64,21.2,23.3
 2004/10/04,21:15,22.1,65,21.3,23.5
 2004/10/04,21:30,22.2,65,21.3,23.5
 2004/10/04,21:45,22.3,65,21.2,23.5
 2004/10/04,22:00,22.3,65,21.2,23.4
 2004/10/04,22:15,22.4,65,21.1,23.4
 2004/10/04,22:30,22.4,65,21,23.5
 2004/10/04,22:45,22.4,66,21.1,23.4
 2004/10/04,23:00,22.3,67,21,23.4
 2004/10/04,23:15,22.6,67,21.1,23
 2004/10/04,23:30,22.8,67,20.9,23
 2004/10/04,23:45,22.8,67,20.9,23
 2004/10/05, 0:00,22.7,66,20.8,23
 2004/10/05, 0:15,22.6,66,20.9,23.1
 2004/10/05, 0:30,22.5,65,21.1,23.3
 2004/10/05, 0:45,22.3,66,21.1,23.3
 2004/10/05, 1:00,22.2,67,21.1,23.2
 2004/10/05, 1:15,22.2,68,21.2,23.2
 2004/10/05, 1:30,22.1,68,21.2,23.2
 2004/10/05, 1:45,22.1,68,21.2,23.2
 2004/10/05, 2:00,22,68,21.1,23.1
 2004/10/05, 2:15,22,68,21.1,23.1
 2004/10/05, 2:30,22,68,21.1,23
 2004/10/05, 2:45,21.9,69,21.1,23
 2004/10/05, 3:00,21.8,70,21.1,23
 2004/10/05, 3:15,21.8,71,21.1,22.9
 2004/10/05, 3:30,21.7,71,21,22.9
 2004/10/05, 3:45,21.7,72,21.1,22.9
 2004/10/05, 4:00,21.6,72,21.1,22.8
 2004/10/05, 4:15,21.6,72,21.1,22.8
 2004/10/05, 4:30,21.6,73,21,22.7
 2004/10/05, 4:45,21.5,73,21,22.7
 2004/10/05, 5:00,21.5,75,20.9,22.7
 2004/10/05, 5:15,21.4,76,20.8,22.6
 2004/10/05, 5:30,21.4,77,20.9,22.6
 2004/10/05, 5:45,21.5,76,20.8,22.6
 2004/10/05, 6:00,21.5,77,20.8,22.6
 2004/10/05, 6:15,21.6,76,20.8,22.5
 2004/10/05, 6:30,21.5,77,20.7,22.5
 2004/10/05, 6:45,21.6,76,20.7,22.5
 2004/10/05, 7:00,21.5,78,20.6,23.5
 2004/10/05, 7:15,21.7,82,20.5,23.4
 2004/10/05, 7:30,21.6,79,20.4,24.1
 2004/10/05, 7:45,21.3,80,20.4,23.6
 2004/10/05, 8:00,21,81,20.3,23.5
 2004/10/05, 8:15,21.1,79,20.3,23.4
 2004/10/05, 8:30,21.1,79,20.2,23.3
 2004/10/05, 8:45,21,79,20.3,22.8
 2004/10/05, 9:00,21.1,79,20.3,22.8
 2004/10/05, 9:15,21.2,78,20.4,22.8
 2004/10/05, 9:30,21.3,77,20.4,22.8
 2004/10/05, 9:45,21.3,78,20.4,21.7
 2004/10/05,10:00,21.3,78,20.4,22.6
 2004/10/05,10:15,21.3,77,20.4,22.9
 2004/10/05,10:30,21.3,76,20.5,22.8
 2004/10/05,10:45,21.5,79,20.6,22.8
 2004/10/05,11:00,21.8,79,20.6,22.7
 2004/10/05,11:15,22.2,85,20.6,22.7
 2004/10/05,11:30,22.1,85,20.7,22.7
 2004/10/05,11:45,22.1,80,20.7,22.6
 2004/10/05,12:00,21.9,79,20.9,22.6
 2004/10/05,12:15,22.4,81,20.8,22.6
 2004/10/05,12:30,22.5,78,20.7,22.5
 2004/10/05,12:45,22.7,77,20.6,22.5
 2004/10/05,13:00,22.6,75,20.6,22.4
 2004/10/05,13:15,22.5,75,20.5,23.6
 2004/10/05,13:30,22.5,74,20.5,23.2
 2004/10/05,13:45,22.4,74,20.5,23.2
 2004/10/05,14:00,22.4,74,20.5,23.2
 2004/10/05,14:15,22.4,74,20.4,22.9
 2004/10/05,14:30,22.3,74,20.5,22.9
 2004/10/05,14:45,22.3,74,20.5,22.8
 2004/10/05,15:00,22.3,74,20.4,22.8
 2004/10/05,15:15,22.3,74,20.4,23.4
 2004/10/05,15:30,22.3,74,20.4,23.4
 2004/10/05,15:45,22.2,74,20.3,23.3
 2004/10/05,16:00,22,74,20.4,23.7
 2004/10/05,16:15,21.9,74,20.5,23.6
 2004/10/05,16:30,21.8,74,20.4,23.5
 2004/10/05,16:45,21.8,73,20.5,23.4
 2004/10/05,17:00,21.7,74,20.6,23.4
 2004/10/05,17:15,21.7,74,20.6,23.3
 2004/10/05,17:30,21.7,74,20.6,22.7
 2004/10/05,17:45,21.8,74,20.6,22.7
 2004/10/05,18:00,21.7,74,20.6,23.3
 2004/10/05,18:15,21.8,74,20.5,23.3
 2004/10/05,18:30,21.8,74,20.5,23.2
 2004/10/05,18:45,21.7,74,20.4,23.2
 2004/10/05,19:00,21.6,74,20.3,23.1
 2004/10/05,19:15,21.4,74,20.3,23.1
 2004/10/05,19:30,21.4,73,20.3,23.1
 2004/10/05,19:45,21.4,73,20.3,23.1
 2004/10/05,20:00,21.9,77,20.3,23.1
 2004/10/05,20:15,21.9,75,20.3,23.1
 2004/10/05,20:30,22,74,20.2,23
 2004/10/05,20:45,21.9,73,20.2,23.6
 2004/10/05,21:00,21.9,74,20.2,23.5
 2004/10/05,21:15,22,73,20.2,23.5
 2004/10/05,21:30,22,72,20.1,23.4
 2004/10/05,21:45,22,72,20,23.3
 2004/10/05,22:00,22,72,19.9,23.3
 2004/10/05,22:15,22,72,20,23.2
 2004/10/05,22:30,22,71,19.9,23.1
 2004/10/05,22:45,21.7,71,19.9,22.6
 2004/10/05,23:00,21.7,72,20,22.6
 2004/10/05,23:15,21.6,72,20.1,23.1
 2004/10/05,23:30,21.5,72,20.1,23.2
 2004/10/05,23:45,21.4,73,20.1,23.1
 2004/10/06, 0:00,21.3,73,20.1,23.1
 2004/10/06, 0:15,21.2,73,20.2,23
 2004/10/06, 0:30,21.2,73,20.2,22.9
 2004/10/06, 0:45,21.1,74,20.2,22.9
 2004/10/06, 1:00,21,74,20.2,22.8
 2004/10/06, 1:15,21.1,74,20.2,22.8
 2004/10/06, 1:30,21.1,74,20.1,22.7
 2004/10/06, 1:45,21.1,74,20.1,22.7
 2004/10/06, 2:00,21.1,74,20.1,22.7
 2004/10/06, 2:15,21,74,20.1,22.6
 2004/10/06, 2:30,21,74,20.1,22.6
 2004/10/06, 2:45,21,74,20.1,22.5
 2004/10/06, 3:00,21,74,20.2,22.5
 2004/10/06, 3:15,21,75,20.1,22.4
 2004/10/06, 3:30,21,75,20.1,22.4
 2004/10/06, 3:45,21,75,20,22.3
 2004/10/06, 4:00,21,75,20,22.3
 2004/10/06, 4:15,20.9,75,19.9,22.3
 2004/10/06, 4:30,20.9,75,19.9,22.2
 2004/10/06, 4:45,20.9,74,19.8,22.2
 2004/10/06, 5:00,20.9,74,19.8,22.1
 2004/10/06, 5:15,20.8,74,19.7,22.1
 2004/10/06, 5:30,20.7,74,19.6,22
 2004/10/06, 5:45,20.6,74,19.6,22
 2004/10/06, 6:00,20.6,74,19.5,22
 2004/10/06, 6:15,20.6,73,19.6,21.9
 2004/10/06, 6:30,20.5,73,19.5,21.9
 2004/10/06, 6:45,20.7,74,19.5,23.3
 2004/10/06, 7:00,20.6,75,19.7,23.5
 2004/10/06, 7:15,20.8,76,19.6,23.4
 2004/10/06, 7:30,21.2,75,19.6,23.7
 2004/10/06, 7:45,21.6,71,19.8,23.6
 2004/10/06, 8:00,21.5,70,20.3,23.5
 2004/10/06, 8:15,21.9,70,21.2,23.4
 2004/10/06, 8:30,22.5,66,22.6,23.3
 2004/10/06, 8:45,22.2,64,22.4,22.7
 2004/10/06, 9:00,22,65,22,22.7
 2004/10/06, 9:15,21.9,64,22,22.7
 2004/10/06, 9:30,22.2,65,22.3,22.6
 2004/10/06, 9:45,22.4,63,22.4,22.6
 2004/10/06,10:00,22.4,64,22.2,22.6
 2004/10/06,10:15,22.4,64,22.1,22.5
 2004/10/06,10:30,22.5,69,21.9,22.5
 2004/10/06,10:45,22.3,58,21.8,22.4
 2004/10/06,11:00,22.6,57,21.9,22.4
 2004/10/06,11:15,22.7,57,22,22.4
 2004/10/06,11:30,22.7,57,21.9,22.4
 2004/10/06,11:45,22.8,57,22.1,22.4
 2004/10/06,12:00,22.9,55,22.1,22.3
 2004/10/06,12:15,23.2,56,22.2,22.3
 2004/10/06,12:30,23.2,54,22.3,22.3
 2004/10/06,12:45,23.3,54,22.4,22.3
 2004/10/06,13:00,23.2,54,22.4,22.4
 2004/10/06,13:15,23.1,54,22.4,23.4
 2004/10/06,13:30,23.1,53,22.3,23.4
 2004/10/06,13:45,23.2,53,22.3,23.4
 2004/10/06,14:00,23.5,54,22.4,23.3
 2004/10/06,14:15,23.7,52,22.5,22.6
 2004/10/06,14:30,24,53,22.4,22.9
 2004/10/06,14:45,24.5,50,22.5,22.9
 2004/10/06,15:00,24.6,50,22.6,22.9
 2004/10/06,15:15,24.5,50,22.6,22.9
 2004/10/06,15:30,24.2,50,22.6,22.9
 2004/10/06,15:45,24.1,50,22.5,22.9
 2004/10/06,16:00,23.9,50,22.5,21.9
 2004/10/06,16:15,23.7,52,22.4,22.5
 2004/10/06,16:30,23.7,52,22.4,22.5
 2004/10/06,16:45,23.5,51,22.2,22.6
 2004/10/06,17:00,23.3,52,22.1,22.5
 2004/10/06,17:15,23.3,51,22.1,22.6
 2004/10/06,17:30,23.3,51,21.9,22.5
 2004/10/06,17:45,23.3,53,21.7,22.5
 2004/10/06,18:00,23,53,21.6,22.5
 2004/10/06,18:15,22.8,54,21.2,22.5
 2004/10/06,18:30,22.6,56,20.7,23.3
 2004/10/06,18:45,22.4,57,20.6,23.3
 2004/10/06,19:00,22.3,57,20.5,23.2
 2004/10/06,19:15,22.7,58,20.6,23.2
 2004/10/06,19:30,22.8,61,20.6,23.2
 2004/10/06,19:45,22.3,59,20.3,23.1
 2004/10/06,20:00,22.6,61,20.1,23.1
 2004/10/06,20:15,22.6,64,20.5,23.5
 2004/10/06,20:30,22.1,59,20.6,22.7
 2004/10/06,20:45,22.3,59,20.5,23.1
 2004/10/06,21:00,22.1,58,20.5,23
 2004/10/06,21:15,21.9,59,20.4,23
 2004/10/06,21:30,21.8,60,20.3,22.9
 2004/10/06,21:45,21.9,59,20.3,22.9
 2004/10/06,22:00,22.1,59,20.3,22.8
 2004/10/06,22:15,22.3,59,20.1,22.3
 2004/10/06,22:30,22.2,60,20,22.9
 2004/10/06,22:45,22.4,61,20,22.9
 2004/10/06,23:00,22.4,60,19.9,22.8
 2004/10/06,23:15,22.4,59,19.7,22.7
 2004/10/06,23:30,22.2,62,19.6,22.6
 2004/10/06,23:45,22.3,63,19.4,22.5
 2004/10/07, 0:00,22.4,63,19.3,22.4
 2004/10/07, 0:15,22.3,61,19.4,22.2
 2004/10/07, 0:30,22.1,61,19.4,22.1
 2004/10/07, 0:45,22,61,19.4,22
 2004/10/07, 1:00,21.8,61,19.1,22.3
 2004/10/07, 1:15,21.5,61,19,22.2
 2004/10/07, 1:30,21.3,61,18.8,22.1
 2004/10/07, 1:45,21.1,62,18.7,22
 2004/10/07, 2:00,20.9,62,18.6,21.9
 2004/10/07, 2:15,20.7,63,18.5,21.8
 2004/10/07, 2:30,20.6,63,18.4,21.7
 2004/10/07, 2:45,20.5,63,18.3,21.5
 2004/10/07, 3:00,20.5,63,18.3,21.4
 2004/10/07, 3:15,20.4,63,18.2,21.3
 2004/10/07, 3:30,20.3,64,18.1,21.2
 2004/10/07, 3:45,20.2,64,18.1,21.1
 2004/10/07, 4:00,20.1,64,17.9,21
 2004/10/07, 4:15,20.1,64,17.8,20.9
 2004/10/07, 4:30,19.9,65,17.8,20.8
 2004/10/07, 4:45,19.8,65,17.9,20.7
 2004/10/07, 5:00,19.8,65,17.7,20.6
 2004/10/07, 5:15,19.6,65,17.7,20.5
 2004/10/07, 5:30,19.8,67,17.7,20.4
 2004/10/07, 5:45,20.3,71,17.7,20.3
 2004/10/07, 6:00,20,68,17.7,22.7
 2004/10/07, 6:15,19.6,67,17.9,22.4
 2004/10/07, 6:30,19.4,67,17.6,22.3
 2004/10/07, 6:45,19.2,67,17.5,22.1
 2004/10/07, 7:00,19.3,68,17.7,22
 2004/10/07, 7:15,19.7,67,18,21.9
 2004/10/07, 7:30,19.9,67,18.5,23
 2004/10/07, 7:45,20.3,66,18.9,22.8
 2004/10/07, 8:00,20.8,67,19.4,22.6
 2004/10/07, 8:15,21.3,65,20.5,22.5
 2004/10/07, 8:30,21.5,65,21.3,22.4
 2004/10/07, 8:45,21.6,66,21.5,22.3
 2004/10/07, 9:00,21.8,66,21.7,22.6
 2004/10/07, 9:15,21.8,66,21.8,23.2
 2004/10/07, 9:30,21.7,68,21.5,23.1
 2004/10/07, 9:45,21.5,69,21.2,22.9
 2004/10/07,10:00,21.5,70,21.1,22.9
 2004/10/07,10:15,21.6,70,21.2,22.6
 2004/10/07,10:30,21.6,70,21.2,22.8
 2004/10/07,10:45,21.6,70,21.3,22.7
 2004/10/07,11:00,21.5,71,21.1,22.7
 2004/10/07,11:15,21.5,71,21.2,22.6
 2004/10/07,11:30,21.5,70,21.3,22.5
 2004/10/07,11:45,21.6,69,21.2,22.5
 2004/10/07,12:00,21.6,70,21.4,22.4
 2004/10/07,12:15,22,71,21.5,22.4
 2004/10/07,12:30,22,69,21.5,22.4
 2004/10/07,12:45,22,69,21.6,22.3
 2004/10/07,13:00,21.9,68,21.7,22.3
 2004/10/07,13:15,21.9,68,21.6,22.3
 2004/10/07,13:30,21.9,68,21.6,22.2
 2004/10/07,13:45,22,68,21.7,22.2
 2004/10/07,14:00,22.1,68,21.7,22.2
 2004/10/07,14:15,22.1,68,21.7,22.2
 2004/10/07,14:30,22.1,68,21.7,22.2
 2004/10/07,14:45,22.2,69,21.6,22.1
 2004/10/07,15:00,22.2,68,21.7,22.1
 2004/10/07,15:15,22.2,69,21.7,22.1
 2004/10/07,15:30,22.3,68,21.7,22.1
 2004/10/07,15:45,22.3,68,21.8,22
 2004/10/07,16:00,22.3,67,21.9,22
 2004/10/07,16:15,22.3,67,21.9,22
 2004/10/07,16:30,22.3,68,21.8,22
 2004/10/07,16:45,22.2,68,21.8,22.6
 2004/10/07,17:00,22.2,68,21.7,22.6
 2004/10/07,17:15,22.2,68,21.7,22.6
 2004/10/07,17:30,22.2,68,21.7,21.7
 2004/10/07,17:45,22.2,68,21.6,22.5
 2004/10/07,18:00,22.4,74,21.5,23.2
 2004/10/07,18:15,22.4,74,21.4,22.7
 2004/10/07,18:30,22.2,72,21.3,23
 2004/10/07,18:45,22.1,70,21.2,23
 2004/10/07,19:00,22.3,78,21.1,22.9
 2004/10/07,19:15,22.4,81,21.1,22.9
 2004/10/07,19:30,22.2,74,21.2,22.9
 2004/10/07,19:45,22.2,71,21.2,22.9